Greenville Downtown, SC

6:29 AM EDT on June 26, 2017 (GMT -0400)
Greenville Downtown

Weather History for KGMU - January, 2014

Change the Weather History Date:

Sunday, January 26, 2014

  Actual Average Record
Temperature  
Mean Temperature 40 °F -  
Max Temperature 53 °F 49 °F 68 °F (2005)
Min Temperature 28 °F 32 °F 21 °F (2000)
Degree Days  
Heating Degree Days 24    
Moisture  
Dew Point 21 °F    
Average Humidity 45    
Maximum Humidity 64    
Minimum Humidity 28    
Precipitation  
Precipitation 0.00 in - - ()
Sea Level Pressure  
Sea Level Pressure 29.91 in    
Wind  
Wind Speed 8 mph (SW)    
Max Wind Speed 18 mph    
Max Gust Speed 25 mph    
Visibility 10 miles    
Events      
Averages and records for this station are not official NWS values.
T = Trace of Precipitation, MM = Missing Value Source: NWS Daily Summary

Daily Weather History Graph

Daily Weather History Graph

Search for Another Location

Airport or City:

Trip Planner

Search our weather history database for the weather conditions in past years. The results will help you decide how hot, cold, wet, or windy it might be!

Date:

Astronomy

Jan. 26, 2014 Rise Set
Actual Time 7:31 AM EST 5:52 PM EST
Civil Twilight 7:05 AM EST 6:19 PM EST
Nautical Twilight 6:34 AM EST 6:49 PM EST
Astronomical Twilight 6:04 AM EST 7:19 PM EST
Moon 3:07 AM EST 1:41 PM EST
Length of Visible Light 11h 14m
Length of Day
10h 20m
Waning Crescent, 24% of the Moon is Illuminated
Jan 26
Waning Crescent
Jan 30
New
Feb 6
First Quarter
Feb 14
Full
Feb 22
Last Quarter

Hourly Weather History & Observations

Time (EST) Temp. Windchill Dew Point Humidity Pressure Visibility Wind Dir Wind Speed Gust Speed Precip Events Conditions
12:53 AM 33.1 °F 28.7 °F 15.1 °F 48% 29.90 in 10.0 mi SSW 4.6 mph - N/A   Clear
1:53 AM 33.1 °F 23.9 °F 17.1 °F 52% 29.89 in 10.0 mi WSW 12.7 mph - N/A   Clear
2:53 AM 32.0 °F 25.6 °F 17.1 °F 54% 29.90 in 10.0 mi WSW 6.9 mph - N/A   Clear
3:53 AM 32.0 °F - 17.1 °F 54% 29.90 in 10.0 mi Calm Calm - N/A   Clear
4:53 AM 30.9 °F 26.2 °F 18.0 °F 59% 29.91 in 10.0 mi South 4.6 mph - N/A   Clear
5:53 AM 30.9 °F 27.5 °F 18.0 °F 59% 29.93 in 10.0 mi West 3.5 mph - N/A   Clear
6:53 AM 28.9 °F 25.2 °F 18.0 °F 64% 29.95 in 10.0 mi SW 3.5 mph - N/A   Clear
7:53 AM 28.9 °F - 18.0 °F 64% 29.97 in 10.0 mi Calm Calm - N/A   Clear
8:53 AM 32.0 °F 28.7 °F 19.9 °F 61% 29.96 in 10.0 mi West 3.5 mph - N/A   Clear
9:53 AM 37.0 °F 31.0 °F 19.9 °F 50% 29.98 in 10.0 mi West 8.1 mph - N/A   Clear
10:53 AM 42.1 °F 36.6 °F 18.0 °F 38% 29.97 in 10.0 mi SW 9.2 mph - N/A   Clear
11:53 AM 48.0 °F - 16.0 °F 28% 29.94 in 10.0 mi WSW 13.8 mph - N/A   Clear
12:53 PM 51.1 °F - 19.9 °F 29% 29.91 in 10.0 mi WSW 16.1 mph 23.0 mph N/A   Clear
1:53 PM 51.1 °F - 23.0 °F 33% 29.88 in 10.0 mi SW 13.8 mph 25.3 mph N/A   Clear
2:53 PM 53.1 °F - 24.1 °F 32% 29.86 in 10.0 mi SW 12.7 mph 23.0 mph N/A   Clear
3:53 PM 53.1 °F - 25.0 °F 34% 29.87 in 10.0 mi SW 17.3 mph 25.3 mph N/A   Clear
4:53 PM 53.1 °F - 25.0 °F 34% 29.88 in 10.0 mi SW 18.4 mph 25.3 mph N/A   Clear
5:53 PM 51.1 °F - 25.0 °F 36% 29.89 in 10.0 mi SW 10.4 mph - N/A   Clear
6:53 PM 50.0 °F - 26.1 °F 39% 29.91 in 10.0 mi SSW 9.2 mph - N/A   Clear
7:53 PM 48.9 °F - 26.1 °F 41% 29.91 in 10.0 mi SW 9.2 mph - N/A   Clear
8:53 PM 48.9 °F - 26.1 °F 41% 29.91 in 10.0 mi WSW 9.2 mph - N/A   Clear
9:53 PM 48.0 °F - 26.1 °F 42% 29.90 in 10.0 mi SW 8.1 mph - N/A   Clear
10:53 PM 46.9 °F - 26.1 °F 44% 29.90 in 10.0 mi SW 8.1 mph - N/A   Clear
11:53 PM 46.9 °F - 27.0 °F 46% 29.89 in 10.0 mi WSW 6.9 mph - N/A   Clear